Home > Weather > Fukushima > Past weeks

Flag for Japan Past Weather in Fukushima, Japan — Yesterday and Last 2 Weeks

Now
67 °F

Mild.


Feels Like: 67 °F
Forecast: 60 / 88 °F
Wind: 2 mph from South

Location: Wakamatsu

Current Time: May 25, 2016 at 10:14:20 PM

Latest Report: May 25, 2016 at 9:00 PM


Visibility: 8 mi

Pressure: 29.91 "Hg

Humidity: 77%

Dew Point: 59 °F

Location of FukushimaLocation

Past Weather in Fukushima — Graph

°F

Fukushima Temperature Yesterday

Maximum temperature yesterday: 82 °F (at 2:00 PM)
Minimum temperature yesterday: 55 °F (at 5:00 AM)
Average temperature yesterday: 70 °F

High & Low Weather Summary for the Past Weeks

 TemperatureHumidityPressure
High86 °F (May 23, 2:00 PM)100% (May 18, 12:00 AM)30.26 "Hg (May 18, 12:00 AM)
Low49 °F (May 18, 5:00 AM)21% (May 23, 3:00 PM)29.41 "Hg (May 11, 10:00 AM)
Average65 °F64%30.01 "Hg
* Reported May 10 9:00 PM — May 25 9:00 PM, Fukushima, Weather by CustomWeather, © 2016

Note: Actual official high and low records may vary slightly from our data, if they occured in-between our weather recording intervals... More about our weather records

Advertising

Fukushima Weather History for the Previous 24 Hours

Scroll right to see more
 ConditionsComfort  
Time TempWeatherWind HumidityBarometerVisibility
9:00 PM
Wed, May 25
67 °FMild.2 mph77%29.91 "Hg8 mi
8:00 PM68 °FMild.3 mph75%29.90 "Hg8 mi
7:00 PM71 °FMild.1 mph65%29.88 "Hg9 mi
6:00 PM74 °FMild.5 mph56%29.88 "Hg8 mi
5:00 PM74 °FMild.3 mph50%29.87 "Hg10 mi
4:00 PM75 °FMild.3 mph50%29.86 "Hg10 mi
3:00 PM74 °FMild.3 mph53%29.87 "Hg11 mi
2:00 PM74 °FMild.3 mph52%29.88 "Hg11 mi
1:00 PM74 °FMild.2 mph52%29.88 "Hg9 mi
12:00 PM74 °FMild.2 mph56%29.90 "Hg9 mi
11:00 AM71 °FMild.1 mph58%29.88 "Hg9 mi
10:00 AM71 °FMild.3 mph57%29.88 "Hg9 mi
9:00 AM69 °FMild.1 mph62%29.90 "Hg9 mi
8:00 AM68 °FLight rain. Cloudy.2 mph62%29.89 "Hg8 mi
7:00 AM66 °FLight rain. Cloudy.2 mph66%29.89 "Hg8 mi
6:00 AM67 °FMild.3 mph63%29.88 "Hg9 mi
5:00 AM66 °FMild.1 mph64%29.87 "Hg9 mi
4:00 AM67 °FMild.3 mph61%29.85 "Hg9 mi
3:00 AM69 °FMild.3 mph54%29.85 "Hg10 mi
2:00 AM70 °FMild.3 mph45%29.84 "Hg10 mi
1:00 AM72 °FMild.5 mph39%29.85 "Hg10 mi
12:00 AM71 °FMild.2 mph39%29.85 "Hg10 mi
11:00 PM
Tue, May 24
74 °FMild.7 mph30%29.85 "Hg10 mi
10:00 PM74 °FMild.7 mph31%29.86 "Hg9 mi
Weather by CustomWeather, © 2016

See weather overviewHow to use our weather pages